Regional Weather Roundup
Issued by NWS Bismarck, ND

Home | Current Version | Previous Version | Text Only | Print | Product List | Glossary On
Versions: 1 2 3 4 5 6 7 8 9 10 11 12 13 14 15 16 17 18 19 20 21 22 23 24 25 26 27 28 29 30 31 32 33 34 35 36 37 38 39 40 41 42 43 44 45 46 47 48 49 50
000
ASUS43 KBIS 281210
RWRBIS

NWR BROADCAST TEXT
NATIONAL WEATHER SERVICE BISMARCK ND
700 AM CDT THU JUL 28 2016

NOTE: "FAIR" INDICATES FEW OR NO CLOUDS BELOW 12,000 FEET WITH NO
SIGNIFICANT WEATHER AND/OR OBSTRUCTIONS TO VISIBILITY.


CITY           SKY/WX    TMP DP  RH WIND       PRES   REMARKS
WILLISTON      CLEAR     60  58  92 N6        30.16R
MINOT          CLOUDY    62  57  83 NE5       30.16S
MINOT AFB      CLOUDY    59  56  89 E6        30.15S
BISMARCK       CLOUDY    63  59  87 E7        30.15R
DICKINSON      RAIN      59  59 100 E12       30.13S FOG
GARRISON         N/A     61  59  93 NE3       30.15S
HETTINGER ARPT CLOUDY    59  57  93 E6        30.14S FOG
JAMESTOWN      MOCLDY    57  55  93 N7        30.12S
BEACH          FOG       59  59 100 E3        30.17R VSB<1/4
CARRINGTON     FAIR      54  54 100 N6        30.17R
HAZEN          CLOUDY    59  59 100 CALM      30.17S
LINTON         CLOUDY    59  59 100 E7        30.16S
MANDAN         PTSUNNY   61  59  94 MISG      30.16S
OAKES            N/A    N/A N/A N/A MISG        N/A
STANLEY        FAIR      57  57 100 E5        30.19S
WATFORD CITY     N/A    N/A N/A N/A MISG        N/A
$$

CITY           SKY/WX    TMP DP  RH WIND       PRES   REMARKS
GRAND FORKS    CLOUDY    58  56  93 N5        30.11R
GRAND FORKS AF CLOUDY    58  56  92 N9        30.13R
DEVILS LAKE    CLOUDY    56  55  97 N3        30.16S
FARGO          CLOUDY    63  60  90 N5        30.08R
CAVALIER       FAIR      55  54  94 N5        30.16S
GRAFTON        FAIR      55  55 100 N8        30.16R
GWINNER        FAIR      61  57  88 N6        30.11R
LANGDON        FAIR      52  52 100 N5        30.18S
ROLLA          FAIR      50  50 100 NW6       30.20R
$$

CITY           SKY/WX    TMP DP  RH WIND       PRES   REMARKS
ABERDEEN       MOCLDY    61  58  90 N5        30.10S
MOBRIDGE       CLOUDY    61  57  87 CALM      30.09S
BUFFALO          N/A     61  60  97 NE7       30.06F
RAPID CITY     PTCLDY    59  57  93 W8        30.08R
GLASGOW        CLEAR     57  54  89 VRB5      30.17R
SIDNEY         CLOUDY    63  60  90 NE6       30.15R
WOLF POINT     CLOUDY    61  60  97 CALM      30.18R
GLENDIVE       CLOUDY    62  60  93 NE8       30.14R
MILES CITY     MOCLDY    60  57  89 NW3       30.14R
BAKER          CLOUDY    59  58  96 E6        30.14R
$$

CITY           SKY/WX    TMP DP  RH WIND       PRES   REMARKS
BILLINGS       CLOUDY    61  57  87 NW8       30.18R
GREAT FALLS    CLOUDY    59  50  72 E5        30.19S
REGINA         PTCLDY    54  52  94 SE8       30.19R
ESTEVAN        MOCLDY    52  52 100 E5        30.18R
$$




USA.gov is the U.S. government's official web portal to all federal, state and local government web resources and services.